This is the latest recevied weather packets stored in our database for station/object SQ7KHZ-10. If no packets are shown the sender has not sent any weather packets the latest 10 day(s).
| Time | Temp. | Humidity | Pressure | Rain* | Wind** | Luminosity | Snow |
|---|---|---|---|---|---|---|---|
| 1778254787 | 11.67° C | 81% | 1018.1 hPa | 0 mm | - | - | - |
| 1778253572 | 11.67° C | 79% | 1018.1 hPa | 0 mm | - | - | - |
| 1778252369 | 11.67° C | 77% | 1018.1 hPa | 0 mm | - | - | - |
| 1778251163 | 11.67° C | 77% | 1018.1 hPa | 0 mm | - | - | - |
| 1778249959 | 11.67° C | 78% | 1018.2 hPa | 0 mm | - | - | - |
| 1778248755 | 11.67° C | 81% | 1018.1 hPa | 0 mm | - | - | - |
| 1778247526 | 11.67° C | 83% | 1018.1 hPa | 0 mm | - | - | - |
| 1778246321 | 12.22° C | 84% | 1018 hPa | 0 mm | - | - | - |
| 1778245116 | 11.67° C | 81% | 1018.2 hPa | 0 mm | - | - | - |
| 1778243911 | 11.67° C | 85% | 1018.3 hPa | 0 mm | - | - | - |
| 1778242696 | 11.67° C | 85% | 1018.3 hPa | 0 mm | - | - | - |
| 1778241493 | 11.11° C | 83% | 1018.1 hPa | 0 mm | - | - | - |
| 1778240265 | 10.56° C | 85% | 1018.1 hPa | 0 mm | - | - | - |
| 1778239061 | 10.56° C | 86% | 1018.1 hPa | 0 mm | - | - | - |
| 1778237846 | 10.56° C | 88% | 1017.8 hPa | 0 mm | - | - | - |
| 1778236640 | 10.56° C | 84% | 1017.7 hPa | 0 mm | - | - | - |
| 1778235413 | 10° C | 92% | 1017.8 hPa | 0 mm | - | - | - |
| 1778234196 | 9.44° C | 95% | 1017.9 hPa | 0 mm | - | - | - |
| 1778232993 | 9.44° C | 95% | 1017.9 hPa | 0 mm | - | - | - |
| 1778231777 | 9.44° C | 96% | 1017.8 hPa | 0 mm | - | - | - |
| 1778230573 | 9.44° C | 96% | 1017.6 hPa | 0 mm | - | - | - |
| 1778229358 | 9.44° C | 96% | 1017.5 hPa | 0 mm | - | - | - |
| 1778228157 | 9.44° C | 96% | 1017.4 hPa | 0 mm | - | - | - |
| 1778226957 | 8.89° C | 96% | 1017.3 hPa | 0 mm | - | - | - |
| 1778225730 | 8.89° C | 97% | 1017.2 hPa | 0 mm | - | - | - |
* Rain latest hour (hover to see other rain measurements)
** Current wind speed in m/s (hover to see current wind gust speed)